TimeCST,TemperatureF,Dew PointF,Humidity,Sea Level PressureIn,VisibilityMPH,Wind Direction,Wind SpeedMPH,Gust SpeedMPH,PrecipitationIn,Events,Conditions,WindDirDegrees,DateUTC
12:00 AM,76,73,87,29.94,7,ENE,4.6,,,Rain-Thunderstorm,Thunderstorms and Rain,70,2013-10-08 06:00:00
3:00 AM,76,74,94,29.90,12,Calm,Calm,,,Thunderstorm,Thunderstorm,,2013-10-08 09:00:00
5:00 AM,75.2,75.2,100,29.92,6.2,Calm,Calm,-,N/A,Thunderstorm,Thunderstorm,0,2013-10-08 11:00:00
6:00 AM,75,74,95,29.95,7,Calm,Calm,,,Rain-Thunderstorm,Thunderstorms and Rain,,2013-10-08 12:00:00
6:00 AM,75.2,73.4,94,29.95,6.2,Calm,Calm,-,N/A,Rain-Thunderstorm,Light Thunderstorms and Rain,0,2013-10-08 12:00:00
7:00 AM,75.2,75.2,100,29.95,6.2,WNW,4.6,-,N/A,Rain-Thunderstorm,Thunderstorms and Rain,290,2013-10-08 13:00:00
8:00 AM,77.0,75.2,94,29.95,6.2,NNW,6.9,-,N/A,,Mostly Cloudy,340,2013-10-08 14:00:00
9:00 AM,78,76,92,29.97,12,North,4.6,,,,Partly Cloudy,0,2013-10-08 15:00:00
9:00 AM,78.8,77.0,94,29.96,6.2,North,4.6,-,N/A,,Mostly Cloudy,360,2013-10-08 15:00:00
10:00 AM,82.4,77.0,84,29.97,6.2,NE,6.9,-,N/A,,Scattered Clouds,50,2013-10-08 16:00:00
11:00 AM,84.2,77.0,79,29.95,6.2,ENE,3.5,-,N/A,,Scattered Clouds,60,2013-10-08 17:00:00
12:00 PM,86,76,66,29.92,14,ENE,3.5,,,,,60,2013-10-08 18:00:00
12:00 PM,86.0,77.0,74,29.92,6.2,ENE,3.5,-,N/A,,Scattered Clouds,60,2013-10-08 18:00:00
1:00 PM,84.2,75.2,74,29.89,6.2,ENE,8.1,-,N/A,,Scattered Clouds,60,2013-10-08 19:00:00
2:00 PM,84.2,75.2,74,29.87,6.2,East,11.5,-,N/A,,Scattered Clouds,80,2013-10-08 20:00:00
3:00 PM,85,78,73,29.87,14,ENE,11.5,,,,Partly Cloudy,70,2013-10-08 21:00:00
3:00 PM,84.2,77.0,79,29.86,6.2,ENE,11.5,-,N/A,,Scattered Clouds,70,2013-10-08 21:00:00
4:00 PM,-9999,-9999,N/A,29.88,6.2,East,4.6,-,N/A,Rain,Light Rain Showers,100,2013-10-08 22:00:00
5:00 PM,78.8,75.2,89,29.87,6.2,NE,5.8,-,N/A,,Mostly Cloudy,50,2013-10-08 23:00:00
6:00 PM,78,75,89,29.89,12,Calm,Calm,,,,Partly Cloudy,,2013-10-09 00:00:00
6:00 PM,78.8,75.2,89,29.88,6.2,Calm,Calm,-,N/A,,Mostly Cloudy,0,2013-10-09 00:00:00
7:00 PM,78.8,77.0,94,29.91,6.2,NE,4.6,-,N/A,,Mostly Cloudy,50,2013-10-09 01:00:00
9:00 PM,80,77,89,29.94,12,East,1.2,,,,Scattered Clouds,90,2013-10-09 03:00:00